This is the latest recevied weather packets stored in our database for station/object W4SNA-3. If no packets are shown the sender has not sent any weather packets the latest 10 day(s).
| Time | Temp. | Humidity | Pressure | Rain* | Wind** | Luminosity | Snow |
|---|---|---|---|---|---|---|---|
| 1777654111 | 13.89° C | 53% | 1012.8 hPa | 0 mm | - | - | - |
| 1777653810 | 13.89° C | 55% | 1013.2 hPa | 0 mm | - | - | - |
| 1777653510 | 13.89° C | 58% | 1013.2 hPa | 0 mm | - | - | - |
| 1777653240 | 13.89° C | 52% | 1013.2 hPa | 0 mm | - | - | - |
| 1777652910 | 13.89° C | 55% | 1013 hPa | 0 mm | - | - | - |
| 1777652610 | 13.89° C | 56% | 1013 hPa | 0 mm | - | - | - |
| 1777652310 | 14.44° C | 56% | 1013.1 hPa | 0 mm | - | - | - |
| 1777652010 | 15° C | 56% | 1013 hPa | 0 mm | - | - | - |
| 1777651552 | 14.44° C | 57% | 1013.1 hPa | 0 mm | - | - | - |
| 1777651246 | 13.89° C | 58% | 1013.4 hPa | 0 mm | - | - | - |
| 1777650946 | 13.89° C | 59% | 1013.3 hPa | 0 mm | - | - | - |
| 1777650646 | 13.33° C | 61% | 1013.3 hPa | 0 mm | - | - | - |
| 1777650346 | 13.33° C | 60% | 1013.5 hPa | 0 mm | - | - | - |
| 1777650046 | 12.78° C | 57% | 1013.4 hPa | 0 mm | - | - | - |
| 1777649747 | 12.78° C | 60% | 1013.5 hPa | 0 mm | - | - | - |
| 1777649446 | 12.22° C | 65% | 1013.3 hPa | 0 mm | - | - | - |
| 1777649146 | 11.67° C | 61% | 1013.5 hPa | 0 mm | - | - | - |
| 1777648850 | 11.67° C | 61% | 1013.7 hPa | 0 mm | - | - | - |
| 1777648547 | 11.67° C | 59% | 1013.5 hPa | 0 mm | - | - | - |
| 1777648246 | 12.22° C | 53% | 1013.5 hPa | 0 mm | - | - | - |
| 1777647947 | 11.67° C | 65% | 1013.6 hPa | 0 mm | - | - | - |
| 1777647646 | 11.11° C | 65% | 1013.6 hPa | 0 mm | - | - | - |
| 1777647346 | 10.56° C | 60% | 1013.5 hPa | 0 mm | - | - | - |
| 1777646772 | 11.67° C | 64% | 1013.7 hPa | 0 mm | - | - | - |
| 1777646471 | 11.67° C | 62% | 1013.6 hPa | 0 mm | - | - | - |
* Rain latest hour (hover to see other rain measurements)
** Current wind speed in m/s (hover to see current wind gust speed)